CZ-3B R/B (47322 NORAD) Tracking and Keplerian Element Data

This shows tracking and keplerian element data for the satellite.

Feedback or suggestion? Click here.




ElementValue
Catalog47322
NameCZ-3B R/B
Epoch Orbit31
Epoch Day32.82607878
Epoch Year2021
RAAN357.7353
Inclination28.4838
Eccentricity0.7230483
Argument of Perigee187.6846
Mean Anonmoly147.7706
Mean Motion2.40170613
Decay Rate0.00080924
L11 47322U 21003B 21032.82607878 .00080924 11002-5 54957-3 0 9993
L22 47322 28.4838 357.7353 7230483 187.6846 147.7706 2.40170613 313

Live tracking and technical data element details for CZ-3B R/B (NORAD 47322). CZ-3B R/B can be tracked NOW for your location showing map with azimuth and elevation plus other details from your city location.

Track the satellite on the map from your city or location and see movement details for azimuth, elevation, latitude, longitude, range, height, and movement on the map or in text.







IsCatalogInMostPopularTable: catalog: 47322, numindb: 17
Update: records affected: 1



GetName: 47322 CZ-3B R/B

Hit Count: updated at: Tue, 13 Apr 2021 05:03:14 GMT